Flag for U.S.A. Weather past 2 weeks in San Angelo, Texas, U.S.A.

Now
82 °F

Sunny.


Feels Like: 80 °F
Forecast: 57 / 87 °F
Wind: 6 mph from Northwest

Location: Mathis Field

Current Time: Apr 25, 2015 at 8:30:15 PM

Latest Report: Apr 25, 2015 at 7:51 PM


Visibility: 10 mi

Pressure: 29.66 "Hg

Humidity: 18%

Dew point: 34 °F

Location of San AngeloLocation

Historic Weather in San Angelo — Graph

°F

San Angelo temperature yesterday

Maximum temperature yesterday: 87 °F (at 3:51 PM)
Minimum temperature yesterday: 60 °F (at 5:51 AM)
Average temperature yesterday: 70 °F

Past Weeks' High & Low Weather Summary

 TemperatureHumidityPressure
High88 °F (Apr 25, 2:51 PM)96% (Apr 19, 5:51 AM)30.19 "Hg (Apr 19, 5:51 AM)
Low41 °F (Apr 15, 6:51 AM)12% (Apr 25, 2:51 PM)29.62 "Hg (Apr 24, 3:51 PM)
Average67 °F66%29.87 "Hg
* Reported Apr 10 6:51 PM — Apr 25 6:51 PM, San Angelo, Weather by CustomWeather, © 2015

Note: Actual official high and low records may vary slightly from our data, if they occured in-between our weather recording intervals... More about our weather records

Advertising

San Angelo weather history for previous 24 hours

 ConditionsComfort  
Time TempWeatherWind HumidityBarometerVisibility
6:51 PM
Sat, Apr 25
86 °FSunny.16 mph12%29.66 "Hg10 mi
5:51 PM88 °FSunny.16 mph12%29.67 "Hg10 mi
4:51 PM88 °FSunny.23 mph12%29.68 "Hg10 mi
3:51 PM87 °FSunny.20 mph12%29.70 "Hg10 mi
2:51 PM88 °FSunny.17 mph12%29.72 "Hg10 mi
1:51 PM85 °FSunny.20 mph16%29.75 "Hg10 mi
12:51 PM83 °FSunny.16 mph19%29.78 "Hg10 mi
11:51 AM80 °FSunny.13 mph21%29.80 "Hg10 mi
10:51 AM77 °FSunny.12 mph26%29.81 "Hg10 mi
9:51 AM71 °FSunny.9 mph36%29.82 "Hg10 mi
8:51 AM60 °FSunny.7 mph53%29.82 "Hg10 mi
7:51 AM52 °FClear.6 mph72%29.82 "Hg10 mi
6:51 AM50 °FClear.8 mph71%29.81 "Hg10 mi
5:51 AM51 °FClear.9 mph71%29.79 "Hg10 mi
4:51 AM50 °FClear.7 mph80%29.79 "Hg10 mi
3:51 AM53 °FClear.5 mph72%29.77 "Hg10 mi
2:51 AM56 °FClear.7 mph75%29.76 "Hg10 mi
1:51 AM55 °FClear.8 mph80%29.76 "Hg10 mi
12:51 AM58 °FClear.8 mph84%29.76 "Hg10 mi
11:51 PM
Fri, Apr 24
61 °FClear.5 mph75%29.75 "Hg10 mi
10:51 PM63 °FClear.5 mph75%29.75 "Hg10 mi
9:51 PM66 °FClear.5 mph75%29.72 "Hg10 mi
8:51 PM70 °FSunny.6 mph68%29.68 "Hg10 mi
Weather by CustomWeather, © 2015

See weather overviewHow to use our weather pages